Bryce Canyon, UT

8:48 PM MDT on October 18, 2019 (GMT -0600)
Bryce Canyon

Weather History for KBCE - August, 2019

Change the Weather History Date:

Saturday, August 17, 2019

  Actual Average Record
Temperature  
Mean Temperature 60 °F -  
Max Temperature 84 °F 76 °F 88 °F (2002)
Min Temperature 39 °F 44 °F 31 °F (1960)
Degree Days  
Heating Degree Days 4    
Growing Degree Days 10 (Base 50)    
Moisture  
Dew Point 24 °F    
Average Humidity 25    
Maximum Humidity 55    
Minimum Humidity 12    
Precipitation  
Precipitation 0.00 in - - ()
Sea Level Pressure  
Sea Level Pressure 29.83 in    
Wind  
Wind Speed 6 mph (WNW)    
Max Wind Speed 15 mph    
Max Gust Speed 21 mph    
Visibility 10 miles    
Events      
Averages and records for this station are not official NWS values.
T = Trace of Precipitation, MM = Missing Value Source: NWS Daily Summary

Daily Weather History Graph

Daily Weather History Graph

Search for Another Location

Airport or City:

Astronomy

Aug. 17, 2019 Rise Set
Actual Time 6:45 AM MDT 8:18 PM MDT
Civil Twilight 6:18 AM MDT 8:46 PM MDT
Nautical Twilight 5:44 AM MDT 9:19 PM MDT
Astronomical Twilight 5:09 AM MDT 9:55 PM MDT
Moon 9:50 PM MDT (8/17) 8:36 AM MDT (8/17)
Length of Visible Light 14h 28m
Length of Day
13h 33m
Waning Gibbous, 96% of the Moon is Illuminated
Aug 17
Waning Gibbous
Aug 23
Last Quarter
Aug 30
New
Sep 5
First Quarter
Sep 13
Full

Hourly Weather History & Observations

Time (MDT) Temp. Windchill Dew Point Humidity Pressure Visibility Wind Dir Wind Speed Gust Speed Precip Events Conditions
12:53 AM 50.0 °F - 23.0 °F 35% 29.84 in 10.0 mi WNW 3.5 mph - N/A   Clear
1:53 AM 46.9 °F - 23.0 °F 39% 29.84 in 10.0 mi NNW 4.6 mph - N/A   Clear
2:53 AM 50.0 °F - 21.0 °F 32% 29.83 in 10.0 mi NE 4.6 mph - N/A   Clear
3:53 AM 46.0 °F 42.5 °F 21.0 °F 37% 29.85 in 10.0 mi North 6.9 mph - N/A   Clear
4:53 AM 44.1 °F - 21.9 °F 42% 29.85 in 10.0 mi Calm Calm - N/A   Clear
5:53 AM 41.0 °F 39.0 °F 25.0 °F 53% 29.87 in 10.0 mi NW 3.5 mph - N/A   Clear
6:53 AM 39.0 °F 34.8 °F 24.1 °F 55% 29.89 in 10.0 mi WSW 5.8 mph - N/A   Clear
7:53 AM 48.9 °F - 28.9 °F 46% 29.88 in 10.0 mi Calm Calm - N/A   Clear
8:53 AM 64.0 °F - 27.0 °F 25% 29.87 in 10.0 mi Calm Calm - N/A   Clear
9:53 AM 72.0 °F - 27.0 °F 19% 29.85 in 10.0 mi Calm Calm - N/A   Clear
10:53 AM 77.0 °F - 23.0 °F 13% 29.83 in 10.0 mi WSW 5.8 mph - N/A   Clear
11:53 AM 80.1 °F - 24.1 °F 13% 29.84 in 10.0 mi SSW 10.4 mph 18.4 mph N/A   Clear
12:53 PM 81.0 °F - 25.0 °F 13% 29.82 in 10.0 mi NW 8.1 mph - N/A   Clear
1:53 PM 78.1 °F - 25.0 °F 14% 29.83 in 10.0 mi WNW 8.1 mph - N/A   Scattered Clouds
2:53 PM 82.9 °F - 27.0 °F 13% 29.79 in 10.0 mi West 13.8 mph 20.7 mph N/A   Scattered Clouds
3:53 PM 81.0 °F - 26.1 °F 13% 29.81 in 10.0 mi West 13.8 mph 18.4 mph N/A   Partly Cloudy
4:53 PM 79.0 °F - 25.0 °F 14% 29.81 in 10.0 mi Variable 5.8 mph - N/A   Clear
5:53 PM 82.0 °F - 24.1 °F 12% 29.81 in 10.0 mi NW 11.5 mph - N/A   Clear
6:53 PM 80.1 °F - 23.0 °F 12% 29.82 in 10.0 mi West 12.7 mph - N/A   Clear
7:53 PM 73.9 °F - 23.0 °F 15% 29.80 in 10.0 mi WSW 15.0 mph - N/A   Clear
8:53 PM 64.9 °F - 23.0 °F 20% 29.80 in 10.0 mi WSW 8.1 mph - N/A   Clear
9:53 PM 66.0 °F - 21.9 °F 19% 29.78 in 10.0 mi WSW 13.8 mph - N/A   Clear
10:53 PM 62.1 °F - 23.0 °F 22% 29.80 in 10.0 mi SE 4.6 mph - N/A   Clear
11:53 PM 53.1 °F - 24.1 °F 32% 29.83 in 10.0 mi NNE 3.5 mph - N/A   Clear